Showing default

INTELSAT 515, 19772

Orbit data source: Space-Track

INTELSAT 515, 19772 is a payload satellite owned by INTELSAT (US) in GEO that was launched on Fri, 27 Jan 1989 UTC via an ARIANE 2 launch vehicle from the French Guiana (FRGUI). Payload-class satellites include a variety of spacecraft equipped with specific instruments for various scientific and technological missions. These include communications satellites like Starlink; space stations such as the ISS; scientific satellites like the Hubble; Earth observation satellites from companies like Planet Labs, Umbra, and HawkEye 360; GPS; miniature CubeSats for education and research; and military/defense satellites.

Not visible in the next 10 days
Identifier
19772, 1989-006A
Orbit
GEO
Country
Flag of USUS / ITSO
Related business
Manufacturer
Ford Ae
Mission
Non-operational Civil Communications
Bus & Motor
FS INTELSAT 5, STAR 37XF
Mass
1,981 kg wet, 884 kg dry
Launch date (UTC)
1989-01-27 (37 years ago)
Launch vehicle
ARIANE 2
Launch site
French Guiana (FRGUI)
Object type
Payload
Rocket body
Debris
Shape & HBR
Hex Poly + 2 Pan, 8.0 m
Radar Cross Section
18.961 m², Large (>1 m²)

Expand to show TLE details & history
Last TLE update: 3 days ago

TLE from 3 days ago
0 INTELSAT 515
1 19772U 89006A   26171.06295042  .00000041  00000-0  00000-0 0  9999
2 19772  14.9005 354.1704 0021930 119.1962 244.0692  0.99099536124650
Epoch: 2026-06-20T01:30Z
TLE epoch observation values (Epoch: 2026-06-20T01:30:38.916Z)
Latitude
0.78404°
Longitude
66.16784°
Altitude
36,158.654 km
Speed
3.06 km/s
True Right ascension
23h 48m 27s
True Declination
0° 46' 60"
Sunlit
Object was in daylight at epoch
Visualization orbit readout
Latitude
Unknown
Longitude
Unknown
Altitude
Unknown
Speed
Unknown
Apparent Right ascension
Unknown
Apparent Declination
Unknown
Sunlit
N/A
Visualization observer readout
Local Sidereal Time
04:00:00
Azimuth
Unknown
Elevation
Unknown
Doppler factor
Unknown
Orbital elements
Apogee altitude
36,212.611 km
Perigee altitude
36,026.217 km
Semi-major axis
42,497.551 km
Eccentricity
0.00219
Inclination
14.9005°
RAAN
354.1704°
Arg. of periapsis
119.1962°
True anomaly
243.84347°
Mean anomaly
244.0692°
Eccentric anomaly
243.95631°
Mean motion
0.24774 °/min
Orbital period
1,453.13 mins
BSTAR
0
Loading maneuver chart data...
Computing Atmospheric mass density...
Loading historical data...
Loading historical data...
Loading historical data...
Loading historical data...
Loading historical data...
Loading historical data...
Loading historical data...

Documentation

Showing up to 5 results
|